2019-071M (45122 NORAD) Tracking and Keplerian Element Data

This shows tracking and keplerian element data for the satellite.

Feedback or suggestion? Click here.




ElementValue
Catalog45122
Name2019-071M
Epoch Orbit312
Epoch Day52.86625242
Epoch Year2020
RAAN206.5084
Inclination51.6416
Eccentricity0.0010183
Argument of Perigee327.0968
Mean Anonmoly32.9379
Mean Motion15.33187689
Decay Rate2.528E-05
L11 45122U 19071M 20052.86625242 .00002528 00000-0 89114-4 0 9990
L22 45122 51.6416 206.5084 0010183 327.0968 32.9379 15.33187689 3122

Live tracking and technical data element details for 2019-071M (NORAD 45122). 2019-071M can be tracked NOW for your location showing map with azimuth and elevation plus other details from your city location.

Track the satellite on the map from your city or location and see movement details for azimuth, elevation, latitude, longitude, range, height, and movement on the map or in text.







IsCatalogInMostPopularTable: catalog: 45122, numindb: 4
Update: records affected: 1



GetName: 45122 2019-071M

Hit Count: updated at: Mon, 24 Feb 2020 17:27:00 GMT